Orbital Elements
The following orbital elements are taken from MPO220935
Epoch 2012 Sept. 30.0 TT = JDT 2456200.5 MPC
M 55.57276 (2000.0) P Q
n 0.09752457 Peri. 112.56100 +0.41785998 +0.90848689
a 4.6744088 Node 182.17309 -0.88478033 +0.40526466
e 0.7066213 Incl. 10.14595 -0.20629301 +0.10203985
P 10.1 H 13.5 G 0.15 U 0
From 447 observations at 4 oppositions, 2000-2012, mean residual 0".52.
|